Location: Góry Miechowskie
(50.3599°N, 20.1803°E)
Time: 07:36:08
(UTC+00:00)

Altair - Visible Passes

Search period start: 19 September 2024 00:00
Search period end: 29 September 2024 00:00
Orbit: 1501 x 1682 km, 47.2° (Epoch: 18 September)

Date Brightness Start Highest point End Pass type
(mag) Time Alt. Az. Time Alt. Az. Time Alt. Az.
19 Sep 8.0 00:13:36 45° SE 00:13:36 45° SE 00:22:48 10° ENE visible
19 Sep 7.7 02:11:37 29° WSW 02:17:27 73° S 02:27:35 10° E visible
19 Sep 8.2 23:49:42 41° SE 23:49:42 41° SE 23:57:31 10° ENE visible
20 Sep 7.6 01:47:43 38° WSW 01:52:13 72° SSE 02:02:20 10° E visible
20 Sep 7.8 03:46:46 10° W 03:56:50 71° SSW 04:06:54 10° ESE visible
20 Sep 8.4 23:25:47 35° ESE 23:25:47 35° ESE 23:32:13 10° ENE visible
21 Sep 7.6 01:23:48 48° SW 01:26:59 70° SSE 01:37:05 10° E visible
21 Sep 7.7 03:21:48 11° W 03:31:36 72° S 03:41:42 10° ESE visible
21 Sep 8.7 23:01:53 28° E 23:01:53 28° E 23:06:55 10° E visible
22 Sep 7.5 00:59:54 59° SSW 01:01:46 69° SSE 01:11:50 10° E visible
22 Sep 7.7 02:57:54 16° W 03:06:22 73° S 03:16:28 10° ESE visible
22 Sep 8.9 22:37:59 23° E 22:37:59 23° E 22:41:37 10° E visible
23 Sep 7.5 00:35:59 66° S 00:36:33 67° SSE 00:46:35 10° E visible
23 Sep 7.6 02:34:00 23° W 02:41:07 74° S 02:51:16 10° ESE visible
23 Sep 9.2 22:14:05 17° E 22:14:05 17° E 22:16:17 10° E visible
24 Sep 7.6 00:12:06 63° SE 00:12:06 63° SE 00:21:19 10° E visible
24 Sep 7.6 02:10:07 30° W 02:15:53 75° S 02:26:02 10° ESE visible
24 Sep 9.4 21:50:13 12° E 21:50:13 12° E 21:50:56 10° E visible
24 Sep 7.9 23:48:14 53° ESE 23:48:14 53° ESE 23:56:05 10° E visible
25 Sep 7.5 01:46:14 39° W 01:50:38 75° S 02:00:47 10° E visible
25 Sep 7.9 03:45:16 10° W 03:54:59 54° SSW 04:04:44 10° SE visible
25 Sep 8.2 23:24:24 42° E 23:24:24 42° E 23:30:49 10° E visible
26 Sep 7.5 01:22:24 51° WSW 01:25:23 76° S 01:35:33 10° E visible
26 Sep 7.8 03:20:25 11° W 03:29:48 57° SSW 03:39:36 10° SE visible
26 Sep 8.6 23:00:35 33° E 23:00:35 33° E 23:05:33 10° E visible
27 Sep 7.4 00:58:36 66° SW 01:00:08 76° S 01:10:18 10° E visible
27 Sep 7.8 02:56:38 17° W 03:04:36 59° SSW 03:14:28 10° SE visible
27 Sep 8.9 22:36:50 24° E 22:36:50 24° E 22:40:17 10° E visible
28 Sep 7.4 00:34:51 76° S 00:34:54 76° S 00:45:03 10° E visible
28 Sep 7.7 02:32:53 24° W 02:39:23 61° SSW 02:49:19 10° SE visible
28 Sep 9.2 22:13:08 17° E 22:13:08 17° E 22:15:01 10° E visible
